Regional Weather Roundup
Issued by NWS

Home | Current Version | Previous Version | Text Only | Print | Product List | Glossary Off
Versions: 1 2 3 4 5 6 7 8 9 10 11 12 13 14 15 16 17 18 19 20 21 22 23 24 25 26 27 28 29 30 31 32 33 34 35 36 37 38 39 40 41 42 43 44 45 46 47 48 49 50

000
ASUS43 KTOP 301359
RWRKS

WEATHER ROUNDUP FOR KANSAS
NATIONAL WEATHER SERVICE GOODLAND KS
900 AM CDT SAT JUL 30 2016

NOTE:  "FAIR" INDICATES FEW OR NO CLOUDS BELOW 12,000 FEET WITH NO
SIGNIFICANT WEATHER AND/OR OBSTRUCTIONS TO VISIBILITY.

KSZ001>006-013>018-027>032-041>047-301500-
NORTHWEST KANSAS

CITY           SKY/WX    TMP DP  RH WIND       PRES   REMARKS
GOODLAND       SUNNY     70  63  78 S6        30.02F
HAYS           PTSUNNY   75  63  64 S12       29.99F
HILL CITY      SUNNY     73  68  84 CALM      30.00S
RUSSELL        PTSUNNY   74  66  76 S9        30.00R
$$

KSZ061>065-074>080-084>089-301500-
SOUTHWEST KANSAS

CITY           SKY/WX    TMP DP  RH WIND       PRES   REMARKS
DODGE CITY     SUNNY     72  67  84 SE9       30.01R
ELKHART          N/A     70  60  70 W12         N/A
GARDEN CITY    MOSUNNY   72  66  81 SW12      30.01R
GREAT BEND     PTSUNNY   70  63  78 S13       30.00F
LIBERAL        SUNNY     72  64  78 W9        30.04R
$$

KSZ066>073-081>083-090>101-301500-
SOUTHEAST KANSAS

CITY           SKY/WX    TMP DP  RH WIND       PRES   REMARKS
CHANUTE        SUNNY     76  71  85 SE6       30.01R
COFFEYVILLE    SUNNY     77  71  82 CALM      30.00S
HUTCHINSON     CLOUDY    76  69  79 SW9       30.02R
NEWTON         CLOUDY    78  70  76 SW7       30.04R
PARSONS        SUNNY     78  72  81 SE6       30.02R
WICHITA INTL   LGT RAIN  74  70  87 SW6       30.02R
WICHITA JABRA  CLOUDY    75  70  84 S7        30.01R
WICHITA MCCONL LGT RAIN  74  71  89 SW5       30.02R
WINFIELD       CLOUDY    76  71  85 S6        30.04R
$$

KSZ007>012-019>026-033>040-048>060-102>105-301500-
NORTHEAST KANSAS

CITY           SKY/WX    TMP DP  RH WIND       PRES   REMARKS
CONCORDIA      MOSUNNY   72  65  78 SE13      30.02R
EMPORIA        MOSUNNY   73  66  78 E3        30.02R
LAWRENCE       PTSUNNY   72  65  78 CALM      30.03R
MANHATTAN      PTSUNNY   71  65  81 E5        30.02R
OLATHE IND     MOSUNNY   73  65  75 E7        30.03R
OLATHE EXE     MOSUNNY   72  63  73 E7        30.02S
SALINA         MOSUNNY   76  70  82 S3        30.02R
TOPEKA BILLARD CLOUDY    71  64  78 CALM      30.03R
TOPEKA FORBES  PTSUNNY   72  66  81 E5        30.03R
$$



USA.gov is the U.S. government's official web portal to all federal, state and local government web resources and services.